Weather History for Farmington, MO

Change the Weather History Date:

Monday, January 27, 2014

  Actual Average Record
Temperature  
Mean Temperature 22 °F -  
Max Temperature 33 °F 41 °F 66 °F (1999)
Min Temperature 8 °F 23 °F 8 °F (2000)
Degree Days  
Heating Degree Days 44    
Moisture  
Dew Point -5 °F    
Average Humidity 40    
Maximum Humidity 64    
Minimum Humidity 30    
Precipitation  
Precipitation 0.00 in - - ()
Sea Level Pressure  
Sea Level Pressure 30.30 in    
Wind  
Wind Speed 16 mph (NNW)    
Max Wind Speed 24 mph    
Max Gust Speed 37 mph    
Visibility 10 miles    
Events      
Averages and records for this station are not official NWS values.
T = Trace of Precipitation, MM = Missing Value Source: NWS Daily Summary

Daily Weather History Graph

Daily Weather History Graph

Search for Another Location

Airport:

Trip Planner

Search our weather history database for the weather conditions in past years. The results will help you decide how hot, cold, wet, or windy it might be!

Date:

Astronomy

Jan. 27, 2014 Rise Set
Actual Time 7:09 AM CST 5:19 PM CST
Civil Twilight 6:41 AM CST 5:47 PM CST
Nautical Twilight 6:10 AM CST 6:19 PM CST
Astronomical Twilight 5:38 AM CST 6:50 PM CST
Moon 3:50 AM CST (1/27) 2:06 PM CST (1/27)
Length of Visible Light 11h 06m
Length of Day
10h 10m
Waning Crescent, 14% of the Moon is Illuminated
Jan 27
Waning Crescent
Jan 30
New
Feb 6
First Quarter
Feb 14
Full
Feb 22
Last Quarter

Hourly Weather History & Observations

Time (CST) Temp. Windchill Dew Point Humidity Pressure Visibility Wind Dir Wind Speed Gust Speed Precip Events Conditions
12:15 AM 33.8 °F 21.3 °F 19.4 °F 56% 29.96 in 10.0 mi NNW 24.2 mph 36.8 mph N/A   Partly Cloudy
12:35 AM 32.0 °F 21.2 °F 19.4 °F 60% 29.99 in 10.0 mi North 16.1 mph 24.2 mph N/A   Mostly Cloudy
12:55 AM 28.4 °F 15.4 °F 17.6 °F 64% 30.01 in 10.0 mi NNW 19.6 mph 27.6 mph N/A   Overcast
1:15 AM 28.4 °F 15.1 °F 15.8 °F 59% 30.01 in 10.0 mi NNW 20.7 mph 26.5 mph N/A   Overcast
1:35 AM 28.4 °F 15.8 °F 15.8 °F 59% 30.03 in 10.0 mi NNW 18.4 mph 23.0 mph N/A   Overcast
1:55 AM 24.8 °F 10.7 °F 10.4 °F 54% 30.06 in 10.0 mi NNW 19.6 mph 29.9 mph N/A   Overcast
2:15 AM 24.8 °F 11.5 °F 8.6 °F 50% 30.07 in 10.0 mi NNW 17.3 mph 26.5 mph N/A   Overcast
2:35 AM 23.0 °F 8.0 °F 1.4 °F 39% 30.09 in 10.0 mi NNW 20.7 mph 29.9 mph N/A   Overcast
2:55 AM 21.2 °F 6.0 °F -5.8 °F 30% 30.11 in 10.0 mi NW 19.6 mph 27.6 mph N/A   Overcast
3:15 AM 21.2 °F 6.4 °F -2.2 °F 36% 30.11 in 10.0 mi NW 18.4 mph 29.9 mph N/A   Overcast
3:35 AM 21.2 °F 6.0 °F -0.4 °F 39% 30.12 in 10.0 mi NNW 19.6 mph 26.5 mph N/A   Overcast
3:55 AM 19.4 °F 5.0 °F 1.4 °F 46% 30.14 in 10.0 mi North 16.1 mph 26.5 mph N/A   Overcast
4:15 AM 19.4 °F 5.0 °F -2.2 °F 39% 30.16 in 10.0 mi North 16.1 mph 24.2 mph N/A   Overcast
4:35 AM 17.6 °F 0.9 °F -7.6 °F 32% 30.17 in 10.0 mi NNW 20.7 mph 28.8 mph N/A   Overcast
4:55 AM 15.8 °F -1.9 °F -9.4 °F 32% 30.18 in 10.0 mi NNW 21.9 mph 31.1 mph N/A   Overcast
5:15 AM 15.8 °F -1.1 °F -9.4 °F 32% 30.20 in 10.0 mi North 19.6 mph 31.1 mph N/A   Overcast
5:35 AM 15.8 °F -0.6 °F -9.4 °F 32% 30.21 in 10.0 mi NNW 18.4 mph 28.8 mph N/A   Overcast
5:55 AM 14.0 °F -3.0 °F -9.4 °F 35% 30.22 in 10.0 mi North 18.4 mph 31.1 mph N/A   Overcast
6:15 AM 14.0 °F -2.5 °F -9.4 °F 35% 30.22 in 10.0 mi NNW 17.3 mph 26.5 mph N/A   Overcast
6:35 AM 14.0 °F -1.4 °F -7.6 °F 38% 30.24 in 10.0 mi NNW 15.0 mph - N/A   Overcast
6:55 AM 12.2 °F -2.5 °F -7.6 °F 41% 30.26 in 10.0 mi North 12.7 mph 26.5 mph N/A   Overcast
7:15 AM 12.2 °F -3.7 °F -5.8 °F 45% 30.27 in 10.0 mi NNW 15.0 mph 19.6 mph N/A   Overcast
7:35 AM 12.2 °F -3.1 °F -5.8 °F 45% 30.28 in 10.0 mi NNW 13.8 mph 19.6 mph N/A   Scattered Clouds
7:55 AM 12.2 °F -1.8 °F -5.8 °F 45% 30.30 in 10.0 mi NNW 11.5 mph 20.7 mph N/A   Clear
8:15 AM 12.2 °F -3.7 °F -7.6 °F 41% 30.31 in 10.0 mi NNW 15.0 mph 21.9 mph N/A   Clear
8:35 AM 10.4 °F -5.4 °F -7.6 °F 44% 30.32 in 10.0 mi NNW 13.8 mph 20.7 mph N/A   Clear
8:55 AM 10.4 °F -5.4 °F -9.4 °F 41% 30.32 in 10.0 mi NNW 13.8 mph 20.7 mph N/A   Clear
9:15 AM 12.2 °F -2.5 °F -9.4 °F 38% 30.33 in 10.0 mi NNW 12.7 mph 18.4 mph N/A   Clear
9:35 AM 12.2 °F -2.5 °F -9.4 °F 38% 30.35 in 10.0 mi NNW 12.7 mph 18.4 mph N/A   Clear
9:55 AM 12.2 °F -1.8 °F -9.4 °F 38% 30.35 in 10.0 mi NW 11.5 mph 18.4 mph N/A   Partly Cloudy
10:15 AM 10.4 °F -4.1 °F -9.4 °F 41% 30.35 in 10.0 mi NW 11.5 mph 19.6 mph N/A   Clear
10:35 AM 12.2 °F -3.1 °F -9.4 °F 38% 30.36 in 10.0 mi NNW 13.8 mph 18.4 mph N/A   Clear
10:55 AM 12.2 °F -2.5 °F -7.6 °F 41% 30.36 in 10.0 mi NNW 12.7 mph 18.4 mph N/A   Clear
11:15 AM 15.8 °F 2.7 °F -7.6 °F 35% 30.37 in 10.0 mi North 11.5 mph 21.9 mph N/A   Clear
11:35 AM 15.8 °F 3.4 °F -7.6 °F 35% 30.37 in 10.0 mi NNW 10.4 mph 21.9 mph N/A   Clear
11:55 AM 15.8 °F 2.7 °F -9.4 °F 32% 30.36 in 10.0 mi NNW 11.5 mph - N/A   Clear
12:15 PM 15.8 °F 1.4 °F -9.4 °F 32% 30.34 in 10.0 mi NNW 13.8 mph 19.6 mph N/A   Clear
12:35 PM 17.6 °F 3.7 °F -9.4 °F 30% 30.34 in 10.0 mi NNW 13.8 mph 18.4 mph N/A   Clear
12:55 PM 15.8 °F 2.7 °F -9.4 °F 32% 30.34 in 10.0 mi North 11.5 mph 19.6 mph N/A   Clear
1:15 PM 15.8 °F 0.9 °F -9.4 °F 32% 30.34 in 10.0 mi NNW 15.0 mph 24.2 mph N/A   Clear
1:35 PM 15.8 °F 1.4 °F -9.4 °F 32% 30.34 in 10.0 mi NNW 13.8 mph 24.2 mph N/A   Clear
1:55 PM 15.8 °F 1.4 °F -9.4 °F 32% 30.34 in 10.0 mi NNW 13.8 mph 20.7 mph N/A   Clear
2:15 PM 15.8 °F 2.7 °F -11.2 °F 30% 30.34 in 10.0 mi NNW 11.5 mph 17.3 mph N/A   Clear
2:35 PM 15.8 °F 3.4 °F -9.4 °F 32% 30.34 in 10.0 mi North 10.4 mph 17.3 mph N/A   Clear
2:55 PM 15.8 °F 5.1 °F -9.4 °F 32% 30.34 in 10.0 mi NW 8.1 mph - N/A   Clear
3:15 PM 15.8 °F 2.7 °F -9.4 °F 32% 30.34 in 10.0 mi NW 11.5 mph 16.1 mph N/A   Clear
3:35 PM 15.8 °F 1.4 °F -9.4 °F 32% 30.34 in 10.0 mi NNW 13.8 mph 17.3 mph N/A   Clear
3:55 PM 17.6 °F 5.0 °F -9.4 °F 30% 30.34 in 10.0 mi NNW 11.5 mph 18.4 mph N/A   Clear
4:15 PM 17.6 °F 4.3 °F -9.4 °F 30% 30.36 in 10.0 mi NNW 12.7 mph 18.4 mph N/A   Clear
4:35 PM 15.8 °F 2.1 °F -9.4 °F 32% 30.37 in 10.0 mi NNW 12.7 mph - N/A   Clear
4:55 PM 14.0 °F 2.0 °F -11.2 °F 32% 30.37 in 10.0 mi NNW 9.2 mph - N/A   Clear
5:15 PM 14.0 °F 1.2 °F -9.4 °F 35% 30.38 in 10.0 mi NNW 10.4 mph - N/A   Clear
5:35 PM 14.0 °F 2.9 °F -7.6 °F 38% 30.37 in 10.0 mi North 8.1 mph - N/A   Clear
5:55 PM 14.0 °F 3.9 °F -7.6 °F 38% 30.38 in 10.0 mi NNW 6.9 mph - N/A   Clear
6:15 PM 12.2 °F 0.7 °F -7.6 °F 41% 30.40 in 10.0 mi NNW 8.1 mph - N/A   Clear
6:35 PM 12.2 °F 4.3 °F -7.6 °F 41% 30.40 in 10.0 mi North 4.6 mph - N/A   Clear
6:55 PM 12.2 °F -0.2 °F -5.8 °F 45% 30.42 in 10.0 mi NNW 9.2 mph - N/A   Clear
7:15 PM 12.2 °F 1.7 °F -7.6 °F 41% 30.41 in 10.0 mi NNW 6.9 mph - N/A   Partly Cloudy
7:35 PM 12.2 °F 0.7 °F -5.8 °F 45% 30.42 in 10.0 mi North 8.1 mph - N/A   Mostly Cloudy
7:55 PM 12.2 °F -0.2 °F -5.8 °F 45% 30.42 in 10.0 mi North 9.2 mph - N/A   Partly Cloudy
8:15 PM 12.2 °F 4.3 °F -5.8 °F 45% 30.41 in 10.0 mi North 4.6 mph - N/A   Clear
8:35 PM 12.2 °F 0.7 °F -5.8 °F 45% 30.42 in 10.0 mi North 8.1 mph - N/A   Clear
8:55 PM 10.4 °F 0.8 °F -7.6 °F 44% 30.42 in 10.0 mi North 5.8 mph - N/A   Clear
9:15 PM 10.4 °F -0.4 °F -5.8 °F 48% 30.43 in 10.0 mi North 6.9 mph - N/A   Clear
9:35 PM 10.4 °F -0.4 °F -5.8 °F 48% 30.43 in 10.0 mi North 6.9 mph - N/A   Clear
9:55 PM 10.4 °F -0.4 °F -5.8 °F 48% 30.43 in 10.0 mi North 6.9 mph - N/A   Clear
10:15 PM 10.4 °F -0.4 °F -5.8 °F 48% 30.43 in 10.0 mi North 6.9 mph - N/A   Clear
10:35 PM 10.4 °F -1.5 °F -5.8 °F 48% 30.44 in 10.0 mi North 8.1 mph - N/A   Partly Cloudy
10:55 PM 10.4 °F -0.4 °F -5.8 °F 48% 30.44 in 10.0 mi NNW 6.9 mph - N/A   Mostly Cloudy
11:15 PM 10.4 °F -1.5 °F -5.8 °F 48% 30.44 in 10.0 mi North 8.1 mph - N/A   Mostly Cloudy
11:35 PM 10.4 °F -2.4 °F -5.8 °F 48% 30.44 in 10.0 mi NNW 9.2 mph - N/A   Mostly Cloudy
11:55 PM 8.6 °F -3.7 °F -7.6 °F 48% 30.45 in 10.0 mi North 8.1 mph - N/A   Mostly Cloudy